Theta_e
345 346 346 345 343 342 342 342 344 346 346 344 343 343 344 345 346 347 347 348 347 348 348 348 347 348 349 348 348 348 349 348 342 337 339 338 338 338 338 339 338 339 340 340 342 341 337 335 337 338 339 340 342 343 342 342 344 345 345 345 345 346 345 346 346 346 345 345 345 345 345 344 344 344 343 343 342 343 343 343 342 342 343 342 343
344 344 343 343 343 343 344 345 346 347 348 348 347 347 347 348 349 349 350 349 350 349 348 348 347 347 348 348 348 348 349 348 341 336 338 339 338 338 337 337 336 336 336 337 338 340 341 340 341 341 342 343 343 344 343 342 344 345 345 346 346 345 345 345 347 346 345 344 344 344 344 344 344 344 343 342 343 342 342 342 342 342 342 342 341
343 342 343 343 344 345 345 345 346 347 348 348 348 348 349 349 349 349 350 350 350 349 349 348 348 346 347 347 348 348 348 348 343 338 336 337 337 336 336 336 335 335 336 337 337 339 341 342 343 343 344 344 343 345 346 344 345 345 345 346 345 345 345 346 346 345 344 344 344 344 344 345 344 344 343 342 342 342 342 341 341 341 342 342 342
344 344 345 346 348 348 347 345 346 347 348 348 347 347 348 347 348 348 349 349 349 348 348 348 347 347 347 347 347 348 348 348 347 342 337 335 334 334 334 334 335 336 337 337 339 339 339 339 341 342 343 343 343 345 345 346 346 346 346 346 345 346 346 346 346 345 345 345 345 345 345 345 344 345 344 344 343 343 343 343 342 342 343 343 343
347 347 348 348 349 349 347 347 346 348 349 348 347 346 347 347 347 348 348 348 348 347 348 348 347 347 346 347 346 347 347 347 348 346 343 338 335 333 332 332 332 333 334 335 335 336 337 337 337 338 339 340 340 341 342 343 343 345 346 346 346 346 347 347 346 347 346 346 345 346 345 345 344 345 345 344 345 345 344 344 344 344 344 344 345
348 348 348 348 349 348 348 347 347 348 349 348 347 346 346 347 346 347 348 347 348 348 348 348 347 347 346 347 346 347 347 347 347 347 346 344 342 337 335 336 335 333 333 333 333 333 334 334 334 334 335 335 336 336 336 337 338 340 341 342 342 344 345 345 345 345 344 343 342 342 343 342 342 344 345 345 346 345 345 346 346 345 345 345 345
348 347 348 348 348 349 349 348 348 348 349 348 347 347 347 346 346 347 347 347 348 348 348 347 347 347 346 346 346 347 346 346 346 347 347 346 346 342 340 342 343 342 341 339 338 336 335 334 334 333 333 333 333 333 334 333 334 335 336 336 337 338 339 340 339 339 338 337 337 338 339 339 340 341 342 344 345 346 346 346 347 346 347 347 347
349 349 348 349 349 349 349 350 350 350 350 349 348 348 347 347 348 347 348 348 348 347 347 347 346 347 347 346 347 347 346 346 346 346 346 346 346 347 345 345 346 346 345 345 343 341 339 340 337 336 336 336 334 333 332 333 333 333 333 334 335 335 335 335 334 334 334 334 335 336 337 338 339 340 340 342 344 345 345 347 347 347 348 348 349
351 350 349 349 349 350 350 350 351 352 351 349 349 348 348 349 349 348 348 348 348 347 347 348 347 346 346 346 346 345 346 346 345 345 346 345 346 347 347 346 347 346 346 346 347 346 344 344 344 342 341 342 341 339 336 337 337 337 337 337 336 337 336 336 336 335 336 336 337 337 339 340 340 341 342 342 344 345 346 347 348 349 349 349 349
351 351 351 351 351 350 350 351 352 353 351 350 349 350 349 349 349 349 349 349 348 349 349 348 346 345 344 345 346 346 347 348 347 345 345 345 346 347 347 347 347 347 346 346 347 348 348 347 347 346 346 346 346 346 346 346 346 346 345 343 341 340 340 339 339 339 340 340 341 341 341 342 342 341 341 342 345 347 348 351 352 352 352 352 352
350 351 352 352 352 351 352 351 353 353 352 351 351 351 350 350 350 349 349 349 349 349 349 348 346 346 346 347 347 348 349 349 349 347 347 347 347 347 347 347 348 347 347 347 347 348 349 348 348 348 348 348 347 349 350 350 350 350 350 350 348 345 343 342 341 341 342 342 342 343 343 342 341 341 343 347 350 351 353 354 354 354 355 355 355
350 351 352 353 353 353 353 353 352 353 353 352 352 352 352 352 351 350 350 349 349 349 350 349 349 348 347 348 349 349 350 349 350 350 349 349 348 348 348 347 348 348 347 347 348 348 348 349 349 349 348 348 347 348 348 349 349 350 351 351 352 351 349 347 346 345 345 345 346 346 344 341 342 345 350 353 354 355 355 355 356 356 356 356 355
350 351 352 354 354 353 353 353 353 352 353 353 352 352 353 353 353 352 351 350 349 351 352 351 349 348 349 348 348 349 350 350 350 349 349 349 348 348 348 348 348 347 348 347 347 348 348 348 349 349 350 348 346 346 347 348 349 349 351 350 351 352 352 352 351 351 350 348 347 345 344 344 348 352 355 355 355 356 356 356 357 356 355 354 353
351 350 351 353 353 354 353 353 352 352 352 352 351 351 352 353 353 354 353 352 351 352 352 351 350 349 348 348 349 349 348 348 348 348 348 349 348 348 348 349 348 347 347 347 346 346 347 347 348 348 349 347 344 346 347 348 348 349 350 350 352 353 354 354 353 352 350 348 346 345 347 351 353 355 355 356 355 355 356 356 355 353 351 348 344
351 349 350 350 352 353 351 351 352 351 352 352 350 350 351 353 353 353 354 354 352 351 351 351 351 349 349 351 351 351 352 348 345 346 346 347 348 347 348 348 348 347 347 346 346 346 346 345 346 346 347 345 344 347 348 349 349 349 350 351 352 353 353 352 351 350 349 348 349 350 352 354 355 356 356 355 353 354 355 353 351 348 344 339 335
350 350 350 350 351 351 350 350 351 351 352 352 352 350 352 353 353 354 355 354 353 351 350 349 350 350 350 353 349 351 358 352 344 344 343 345 346 346 347 347 346 347 347 346 345 344 345 344 344 345 344 343 344 347 348 348 349 350 349 348 350 352 352 351 350 350 350 351 352 353 355 356 356 356 355 352 349 349 350 348 345 341 337 333 328
350 351 351 350 350 351 350 349 349 351 352 353 353 352 353 353 353 354 355 354 354 352 350 349 350 349 349 352 352 355 361 351 345 346 341 341 344 344 345 345 345 345 346 345 345 345 344 343 344 343 344 345 345 347 349 348 349 349 347 345 349 351 352 352 350 351 351 352 354 354 355 355 355 355 352 347 344 344 345 344 340 335 332 325 319
350 351 351 351 351 350 350 349 348 350 352 352 353 353 353 353 354 355 355 356 355 353 350 348 348 349 348 349 350 353 354 349 347 351 346 341 341 342 344 344 344 344 344 344 343 343 344 343 344 342 343 345 345 347 348 349 349 350 346 347 350 351 350 352 351 351 352 353 354 355 354 354 353 350 345 342 342 343 342 340 335 331 325 319 316
349 350 351 351 351 350 350 350 347 348 352 352 353 354 355 354 355 356 356 356 355 353 350 348 347 348 348 348 347 347 348 348 350 352 351 347 341 339 341 342 342 343 342 343 342 342 342 343 343 342 342 344 345 347 348 349 350 351 348 348 352 352 348 349 351 352 353 353 352 351 351 350 346 342 339 341 342 341 339 334 330 325 320 317 318
349 349 350 351 351 350 350 350 349 349 352 351 351 353 355 355 355 356 356 355 354 353 351 349 350 349 347 347 346 346 346 346 348 347 349 355 351 345 342 341 340 341 341 341 342 342 342 344 343 342 342 343 346 346 348 350 351 353 352 349 353 353 346 345 349 350 350 349 348 349 348 345 340 338 338 340 340 338 333 328 326 321 317 318 319
351 350 350 351 351 350 350 350 350 350 351 350 350 352 353 355 355 355 355 355 354 353 352 351 353 351 349 347 346 347 346 344 347 347 347 353 356 350 346 343 341 340 341 341 340 340 342 344 344 342 340 341 344 345 348 351 351 354 354 350 352 354 348 344 345 346 346 346 347 348 346 341 338 337 337 337 336 333 328 325 323 318 317 319 319
353 354 353 352 351 351 350 349 350 350 351 352 352 352 353 354 355 355 355 355 354 353 352 352 353 352 350 351 349 349 349 348 349 350 346 345 349 347 345 345 343 341 340 339 338 340 341 344 343 341 341 340 343 345 347 351 351 353 353 350 352 354 351 347 345 345 346 346 346 346 345 342 340 337 336 335 333 329 325 324 321 318 319 320 319
356 356 355 355 353 351 350 349 350 350 352 354 355 354 354 355 355 354 355 355 354 353 353 353 353 352 351 352 352 351 351 350 349 351 348 344 346 345 344 346 345 341 341 339 339 339 340 342 342 340 340 340 342 344 346 351 351 352 353 350 350 353 353 351 349 348 349 348 347 345 344 344 342 339 337 334 332 328 324 323 321 319 320 320 319
356 356 355 355 354 351 351 351 351 352 353 354 355 355 355 355 354 355 355 355 353 352 352 352 352 350 351 353 353 352 352 350 349 350 347 343 343 343 343 348 348 343 341 340 339 340 340 340 340 340 340 340 343 345 348 352 350 349 352 350 350 352 354 353 353 353 353 353 352 350 346 345 344 343 340 337 334 331 326 323 321 320 320 321 319
357 357 356 356 354 351 351 353 353 352 352 353 355 356 355 355 355 355 355 355 354 353 352 352 352 352 352 354 353 354 353 351 350 350 346 343 342 343 343 347 348 347 345 340 338 339 340 340 339 340 340 343 346 349 351 352 349 347 350 351 352 352 353 354 353 354 355 355 355 354 351 347 344 344 343 340 338 335 331 325 322 321 321 321 320
355 356 355 356 355 353 352 353 354 354 353 354 354 356 355 355 356 356 355 355 354 353 353 352 352 352 353 354 354 353 352 351 350 349 349 347 345 345 344 344 346 347 347 344 340 339 339 339 339 340 342 347 348 349 351 351 347 347 351 353 355 354 354 354 353 354 356 357 357 356 355 352 347 344 344 343 342 340 336 330 325 323 321 321 320
354 354 354 355 355 354 352 352 354 355 355 355 355 356 356 356 356 355 355 355 355 354 353 351 351 352 353 354 355 355 353 351 349 349 349 349 349 348 345 346 350 349 348 349 346 343 344 342 342 343 346 349 350 349 352 351 348 350 354 355 355 355 354 354 354 354 356 356 358 357 357 355 350 347 346 346 344 343 340 336 332 327 323 322 321
353 353 354 355 355 354 352 351 353 355 355 355 355 356 357 356 356 356 355 356 355 354 353 352 352 352 352 354 355 356 354 351 350 348 347 349 350 350 348 348 350 354 358 364 358 349 348 348 347 349 350 350 351 352 353 352 350 352 354 355 356 355 355 355 354 355 355 356 358 358 358 357 354 350 348 348 347 345 342 341 338 336 330 326 322
353 353 354 355 354 353 351 351 354 356 355 354 354 356 357 358 357 357 356 356 356 355 355 354 354 353 353 354 356 356 355 354 351 349 349 350 350 351 351 348 347 352 363 373 365 353 349 352 351 351 352 352 352 352 351 351 351 351 353 354 355 355 355 355 355 355 356 356 358 358 358 358 356 353 351 350 349 347 344 342 342 341 339 334 327
352 352 353 354 355 354 353 353 354 355 356 355 354 355 356 357 358 359 358 357 357 356 357 356 354 355 354 354 356 357 356 355 353 351 351 351 351 352 352 350 348 349 353 359 362 356 351 353 351 349 349 349 349 349 349 350 350 350 351 352 354 355 355 355 355 355 355 356 357 358 358 359 358 356 353 352 352 351 348 345 344 344 343 340 335
353 353 353 354 355 354 354 354 355 355 356 357 356 355 355 355 357 358 358 358 357 356 357 356 356 357 356 355 356 356 357 356 354 353 352 352 352 352 353 351 349 350 349 351 357 356 350 351 349 346 346 346 346 346 348 350 351 351 351 352 353 354 355 355 356 356 356 356 357 357 358 358 358 357 356 354 353 352 351 348 347 347 345 343 341
355 354 354 354 355 355 355 355 355 355 355 356 356 357 357 355 355 355 356 355 355 354 356 357 358 359 358 357 356 356 357 357 355 354 353 351 351 351 352 352 351 350 350 351 353 352 349 349 347 344 345 346 346 347 347 349 351 353 353 353 354 354 354 355 355 355 356 355 356 356 356 358 358 358 357 355 354 353 353 351 350 349 348 345 343
357 356 356 355 355 356 356 356 356 356 355 355 356 357 358 355 353 353 354 354 353 352 355 357 358 359 358 357 356 356 357 357 356 356 354 354 353 351 351 352 353 352 351 351 351 350 349 349 349 348 347 347 349 349 349 350 350 349 348 348 349 350 350 352 352 353 356 356 356 357 357 358 358 358 358 357 355 354 353 353 351 350 350 347 345
357 357 357 356 356 357 358 356 356 356 355 354 354 356 357 354 352 351 353 355 355 354 355 355 356 357 358 356 355 355 357 358 357 357 357 356 356 354 352 351 352 352 353 353 352 351 351 351 351 350 349 349 350 350 350 350 349 347 347 346 348 350 351 351 353 354 356 357 356 356 357 358 358 358 358 358 356 355 354 354 352 351 350 349 347
357 357 357 357 356 356 356 356 355 355 355 354 354 355 356 354 353 352 354 355 355 355 354 354 355 356 357 356 354 354 356 358 358 357 357 358 358 356 354 352 352 351 352 352 353 352 352 352 352 351 351 350 350 349 350 350 350 350 350 351 353 356 356 355 355 355 356 357 357 356 356 357 357 357 358 358 357 356 355 355 354 352 350 350 349
356 356 356 357 356 356 355 354 354 354 354 354 354 355 355 355 354 353 354 355 355 355 354 353 355 357 358 357 355 354 354 356 356 357 358 358 357 357 356 355 354 353 353 353 352 353 352 352 351 351 351 351 350 350 350 350 351 352 353 354 355 357 357 357 357 356 354 355 356 356 356 357 357 357 359 359 358 358 356 355 354 353 351 350 350
355 355 355 356 356 355 354 353 353 353 354 354 354 354 354 354 354 354 353 354 354 353 353 353 353 354 356 356 355 354 354 354 353 354 355 356 356 355 355 356 356 355 355 354 353 353 353 353 352 351 350 351 351 351 351 352 352 352 353 353 352 354 355 356 356 354 353 353 354 354 355 356 358 359 360 359 359 358 356 356 355 354 353 352 351
354 354 353 354 354 354 354 353 352 352 352 353 353 353 353 354 353 353 353 353 352 352 352 352 352 352 352 353 354 353 354 353 352 351 352 353 353 354 354 354 354 355 355 355 354 354 353 353 353 352 351 351 351 351 350 351 352 352 353 352 350 352 353 354 354 351 350 351 352 354 355 356 358 359 359 359 359 357 355 354 355 355 354 353 352
354 354 352 352 351 352 353 353 352 351 351 351 352 352 351 351 351 352 352 353 353 351 351 351 351 351 351 350 350 351 352 353 352 351 351 351 352 352 353 352 352 353 354 354 354 353 353 353 353 352 352 351 351 350 349 350 351 352 353 353 351 350 350 353 352 348 348 349 351 352 355 357 358 359 358 357 356 353 351 351 352 353 353 354 353
354 354 353 352 350 350 351 351 351 351 350 351 351 350 349 349 349 350 351 352 352 352 351 350 349 350 350 350 351 350 351 351 351 351 352 352 352 351 349 350 351 351 351 352 352 353 353 353 353 353 353 352 351 350 349 350 351 351 351 353 353 351 350 351 350 347 348 350 351 350 351 354 356 355 352 349 347 346 347 349 350 351 352 353 353
355 355 353 352 351 350 350 350 350 351 351 350 350 350 349 349 349 349 350 350 350 350 350 350 349 349 348 348 349 349 350 350 350 350 350 351 352 350 347 347 349 350 350 350 351 352 352 352 352 352 352 352 351 351 351 350 350 349 350 352 353 352 352 353 350 346 347 350 351 350 348 349 349 347 344 340 338 339 341 344 345 348 350 352 353
353 352 352 351 351 351 350 350 350 350 350 350 349 349 349 348 348 349 349 349 349 349 349 349 348 347 347 347 346 346 348 348 348 348 348 347 347 347 345 346 347 348 350 350 350 350 351 352 352 351 351 351 351 351 351 350 349 349 350 352 352 352 353 353 351 347 346 349 351 350 349 349 347 345 343 341 340 337 335 336 339 343 348 350 353
352 352 351 350 350 350 350 350 350 350 350 350 349 348 348 348 348 347 348 348 348 349 348 348 348 347 347 346 346 346 345 346 347 348 348 347 346 346 345 345 346 347 348 350 350 350 351 351 351 351 351 351 350 350 350 350 349 350 349 350 351 352 352 352 352 350 348 349 351 351 351 350 349 347 347 345 344 340 335 334 335 339 343 347 350
352 351 351 351 350 349 350 350 350 350 350 349 349 349 348 348 348 348 347 347 349 348 348 348 347 346 346 346 347 347 346 346 346 347 348 348 347 346 346 345 346 347 347 349 349 348 349 349 350 350 350 350 351 349 349 349 350 350 349 350 351 351 351 352 352 351 350 350 352 352 351 351 350 350 349 347 346 343 338 336 337 337 340 344 347
352 353 353 352 352 351 350 349 349 349 349 349 349 349 348 349 348 348 347 347 348 349 348 348 348 347 347 347 346 346 346 346 347 347 347 347 347 346 347 346 346 346 345 347 347 346 346 347 348 348 347 347 348 347 345 347 350 351 351 351 351 350 351 351 351 351 352 352 353 352 352 352 351 351 351 348 345 343 340 339 340 339 339 341 342
351 352 353 354 354 354 352 350 349 349 348 348 348 348 348 347 347 348 348 349 348 349 349 349 348 348 348 347 347 347 346 346 346 347 347 347 346 346 346 347 346 345 345 345 345 344 343 343 345 345 341 342 344 343 341 345 349 351 351 351 351 352 351 351 351 352 352 353 354 353 352 353 352 352 352 346 343 343 342 340 341 341 341 342 340
351 350 352 354 354 354 354 353 352 350 348 348 348 348 348 347 348 348 348 348 349 349 350 349 349 350 349 348 348 348 347 347 346 347 348 348 348 347 346 346 346 345 344 344 343 342 341 340 341 341 340 341 342 343 342 345 347 347 349 351 352 352 353 353 353 352 351 353 354 353 353 353 352 352 350 343 342 344 342 341 341 340 341 341 339
350 350 351 353 354 354 354 353 353 353 352 351 350 349 350 350 350 350 349 350 349 349 350 350 349 349 349 349 349 348 348 348 347 347 348 349 349 348 347 346 345 345 344 343 342 341 340 340 341 341 343 343 344 345 345 346 345 345 348 352 353 353 353 354 353 351 351 351 353 353 353 352 350 350 348 343 344 345 342 341 341 340 340 340 338
348 350 351 353 353 354 354 354 354 354 353 353 352 352 351 351 351 351 351 351 351 350 349 349 349 349 349 349 349 349 349 349 348 349 348 349 349 348 347 346 346 345 345 345 344 343 342 342 343 343 344 345 345 347 348 348 349 347 349 351 352 351 351 351 350 349 351 353 353 352 351 351 349 349 348 345 345 345 344 342 343 342 341 338 337
347 349 350 353 354 355 355 355 355 355 355 355 355 355 355 354 354 353 353 353 353 353 352 351 350 349 349 349 349 349 349 349 349 349 349 349 349 349 348 347 345 345 345 346 345 345 344 344 343 344 345 346 348 349 349 350 350 351 351 351 351 351 349 348 349 349 350 352 354 353 351 351 351 349 349 348 348 346 345 345 344 343 342 340 339
346 345 347 350 353 353 353 355 355 355 355 355 356 356 356 355 355 354 353 353 353 353 353 353 352 352 351 351 351 350 349 350 350 350 350 350 349 349 349 347 345 345 346 346 346 345 345 345 345 346 348 349 351 351 351 352 351 352 353 353 353 352 349 349 349 350 350 352 355 354 351 350 351 349 349 350 350 348 346 346 346 344 344 343 342
Wind_Speed
14 13 11 11 11 11 11 11 11 11 11 11 11 11 9 8 6 4 2 1 1 2 3 4 5 5 6 7 7 5 4 4 3 4 4 4 4 4 4 4 4 3 3 3 3 2 2 3 3 3 4 4 5 5 5 5 5 5 6 6 6 6 7 7 8 9 10 10 10 11 11 11 12 12 12 12 11 11 10 10 10 10 10 10 10
13 12 12 11 11 10 10 10 10 9 9 9 9 9 7 5 4 2 1 0 1 2 3 4 6 7 7 9 9 7 5 5 4 4 4 4 4 4 4 4 4 4 4 4 3 3 3 4 4 5 5 6 6 6 7 6 6 7 6 7 7 7 8 8 9 10 11 11 11 11 12 12 12 13 13 12 11 11 11 11 11 11 11 11 11
12 12 12 11 10 9 8 9 8 8 8 7 7 6 5 4 2 1 1 1 2 3 4 4 6 7 7 8 9 7 6 5 4 3 3 3 3 3 4 3 3 4 4 4 4 4 4 5 5 6 6 7 7 7 7 7 8 8 8 8 8 8 9 9 11 11 11 12 12 12 13 13 13 13 13 12 11 11 12 12 12 12 12 11 11
11 10 10 9 8 8 8 8 8 8 6 6 5 4 3 2 1 0 1 2 2 3 5 5 5 6 6 6 6 6 5 5 4 3 3 3 2 3 3 4 4 4 4 5 5 5 5 6 6 7 7 7 7 7 8 8 9 9 9 10 10 10 10 11 11 12 12 12 12 12 13 13 13 13 13 12 12 12 12 13 12 12 12 12 12
8 8 8 8 9 9 9 9 8 7 6 4 4 3 2 1 1 1 2 3 4 5 6 6 6 5 5 5 6 5 6 6 4 3 3 2 2 2 2 3 4 4 5 5 5 6 6 7 7 8 8 8 8 8 9 9 9 10 10 11 11 11 12 12 12 12 12 13 13 13 13 13 13 13 13 12 12 12 12 13 13 13 13 13 13
8 8 8 8 9 10 9 9 8 7 5 4 3 3 2 1 1 2 3 4 5 5 6 7 7 7 6 7 7 7 7 6 5 4 4 3 2 3 3 3 4 4 5 5 6 6 7 7 8 8 8 9 9 9 10 10 10 10 10 11 11 11 12 12 12 12 13 13 13 13 13 13 13 13 13 13 13 13 13 13 13 14 14 15 15
8 8 8 8 9 10 9 9 8 7 5 4 3 2 2 2 1 3 3 4 5 5 5 7 8 9 9 9 9 9 8 8 8 7 5 4 3 3 3 4 5 5 6 6 6 6 7 7 7 8 8 8 8 9 9 10 10 10 10 11 11 11 12 12 12 12 12 13 13 13 13 13 14 14 14 14 14 14 15 15 15 15 16 16 16
8 7 8 9 9 9 9 8 7 6 5 4 3 2 2 1 2 3 3 4 4 4 4 6 8 10 11 11 11 11 10 10 10 9 7 6 5 5 5 6 6 6 6 6 6 6 6 7 7 7 7 7 7 7 8 8 9 9 10 10 11 11 11 12 12 12 12 12 13 13 13 14 14 15 16 16 16 16 17 16 16 17 17 18 18
7 7 8 8 8 8 8 8 6 5 4 4 3 2 2 2 2 3 4 4 4 4 4 5 7 9 11 12 12 11 10 10 10 9 9 9 8 7 7 7 7 7 6 6 6 6 6 6 6 6 6 6 7 7 7 7 8 9 9 10 10 11 11 11 12 12 12 12 13 13 14 14 15 16 17 18 18 18 18 17 17 17 17 18 18
7 6 7 7 8 8 8 7 6 4 4 3 3 2 2 2 2 3 4 4 4 5 5 5 5 7 8 9 9 8 7 8 8 9 10 9 9 9 8 8 8 8 8 7 7 7 6 6 6 6 6 6 7 7 8 8 9 10 10 11 11 11 11 12 12 12 13 13 14 14 15 15 16 18 18 18 18 17 16 15 15 15 15 15 15
6 6 7 7 7 7 7 6 6 4 3 3 3 2 2 2 1 2 3 4 4 4 5 4 5 6 5 5 6 6 6 8 8 9 10 10 10 10 10 10 10 10 9 9 8 8 7 7 7 7 6 6 7 8 8 9 10 11 11 12 12 13 13 13 13 13 14 14 15 15 16 17 17 17 17 16 16 15 15 14 13 13 13 13 13
6 6 6 6 6 7 7 6 6 5 3 3 3 3 2 1 1 2 3 4 3 4 4 4 6 7 6 6 6 6 6 8 9 10 10 11 12 12 11 11 12 12 11 10 10 9 9 8 8 8 8 7 7 8 9 10 11 12 12 13 14 14 14 14 14 15 15 15 16 16 16 16 15 14 14 15 15 16 15 15 14 14 13 13 13
7 7 7 6 6 6 7 6 6 5 5 4 4 3 3 2 1 1 3 4 4 3 3 4 4 5 6 7 8 7 7 8 10 11 12 14 13 14 14 14 14 13 13 13 13 12 11 10 10 9 9 9 8 8 9 10 11 12 14 15 15 15 14 15 15 15 15 15 15 14 14 13 12 12 14 16 17 17 17 16 15 14 13 13 13
8 9 9 8 7 7 7 7 6 6 6 5 5 5 4 3 1 1 2 4 5 4 4 4 4 3 2 5 7 7 7 8 10 12 13 14 14 15 15 16 15 14 14 14 14 13 12 11 11 10 10 9 9 8 8 10 11 13 15 16 16 14 14 13 14 13 13 12 12 11 11 11 12 13 16 18 18 17 16 16 15 14 14 13 13
9 10 10 10 8 7 7 7 7 7 7 6 6 6 5 4 2 2 3 5 6 5 4 2 4 4 2 3 3 4 5 6 9 11 12 13 14 15 16 16 16 14 15 15 14 12 12 12 12 11 10 8 7 7 8 10 12 14 16 15 13 12 11 10 10 10 10 10 10 10 10 11 13 15 17 18 18 16 16 15 15 14 14 15 15
10 10 10 9 9 8 7 8 8 8 7 6 6 6 5 4 3 2 4 6 7 6 3 3 5 4 2 1 1 2 2 4 9 10 10 11 13 14 15 16 16 15 15 14 13 12 12 11 11 10 9 7 6 7 8 10 13 14 14 13 11 10 9 8 8 9 9 9 9 10 11 13 15 17 18 18 17 15 15 15 15 16 16 17 16
11 10 9 9 8 8 8 8 9 9 7 6 6 6 6 5 3 2 4 5 7 7 4 4 5 4 2 2 2 2 2 4 8 8 6 8 11 13 14 15 15 14 14 14 12 12 12 10 9 8 7 7 6 8 9 11 13 13 12 11 11 10 10 10 9 9 9 9 10 12 14 16 17 18 18 17 16 15 15 16 17 19 19 19 18
11 9 8 8 9 9 9 9 10 9 8 7 7 8 7 6 4 3 2 4 6 7 5 4 3 3 4 4 4 4 5 5 4 3 6 6 6 9 13 14 14 14 14 14 13 12 12 11 9 8 7 7 7 8 9 11 13 11 11 12 12 13 12 11 11 10 10 11 12 14 16 17 18 18 18 16 15 15 16 18 19 20 20 20 20
11 9 9 9 9 9 9 9 10 10 9 8 9 9 8 6 5 3 2 3 4 5 5 3 2 2 3 5 6 5 6 5 2 2 5 4 5 7 8 10 12 13 13 13 13 13 13 12 11 10 8 8 7 8 9 11 11 10 11 12 12 15 14 12 12 11 12 13 14 15 16 17 18 18 17 16 15 16 18 19 20 20 21 21 22
10 9 9 9 9 9 10 10 10 11 10 9 9 9 9 7 5 3 1 2 3 4 3 2 3 3 3 5 6 6 5 3 2 4 2 1 6 7 7 8 10 11 12 13 13 13 13 13 13 12 10 9 8 8 9 10 9 8 11 12 12 15 16 13 12 12 12 13 14 15 16 17 17 17 17 16 17 18 19 20 20 20 21 22 24
10 9 9 9 9 9 10 11 11 11 11 10 9 9 9 8 6 4 2 2 3 4 3 2 4 5 6 8 9 11 9 4 6 10 3 1 3 3 6 8 7 9 10 12 13 13 14 13 13 13 12 11 9 9 9 10 9 8 10 12 12 14 16 14 13 13 13 13 14 15 16 17 17 17 17 17 18 19 20 20 20 21 22 24 25
10 9 8 9 9 10 10 11 11 11 11 9 8 9 9 8 6 5 3 3 4 3 3 2 3 5 8 10 12 13 11 6 10 13 5 2 2 4 6 6 6 9 9 10 12 13 14 13 13 14 13 11 10 10 10 10 9 8 9 11 11 12 14 14 14 14 15 15 15 16 16 17 17 17 17 18 19 20 21 20 20 21 23 25 26
11 10 9 9 9 10 10 11 11 11 11 9 8 8 8 7 7 6 4 4 5 4 4 3 3 4 7 10 11 11 10 7 11 13 6 3 3 5 7 6 6 8 7 8 12 13 14 14 14 14 13 12 10 11 11 11 10 8 8 10 11 12 13 13 13 14 15 16 17 17 17 18 18 18 18 18 19 20 20 21 21 22 23 25 26
12 12 11 10 10 10 11 11 11 11 11 9 8 8 8 7 7 7 6 6 6 6 5 5 4 3 5 8 9 10 10 9 12 14 8 4 3 4 6 7 5 6 7 9 9 10 12 13 14 15 14 12 9 10 11 11 9 9 9 10 11 12 12 12 13 13 15 16 16 17 18 18 18 18 18 18 19 19 20 20 21 22 24 25 26
14 14 12 11 11 11 12 12 12 12 11 10 8 8 9 9 8 8 8 7 7 7 7 6 5 4 5 7 8 8 9 10 12 14 10 5 3 4 4 5 5 5 7 7 7 7 8 10 11 13 12 9 7 8 10 10 9 9 10 10 11 13 13 13 13 13 14 15 16 17 17 18 18 18 18 18 18 19 19 20 21 22 23 25 26
16 14 13 12 11 11 12 12 12 11 11 10 9 8 9 10 9 9 9 8 8 8 8 8 6 5 5 6 7 7 8 9 10 12 11 9 7 6 5 5 5 5 6 6 6 5 5 7 9 10 8 6 6 8 9 9 10 9 10 11 12 13 14 14 14 14 14 15 16 16 17 17 17 17 17 17 17 17 18 19 20 21 22 24 25
16 14 13 12 12 11 12 12 12 11 11 10 9 9 9 10 10 9 8 7 7 7 8 8 7 7 5 6 7 6 6 7 8 9 9 9 8 7 6 5 4 5 5 6 5 5 5 6 7 7 5 4 6 8 9 10 10 10 11 12 13 13 14 14 14 14 15 15 16 16 16 16 16 16 16 16 17 16 16 17 19 20 22 24 25
16 14 13 13 13 12 13 12 12 12 11 11 10 10 10 9 9 9 8 7 7 7 6 6 7 6 6 6 7 6 6 7 7 7 8 8 6 7 7 6 4 4 5 5 4 5 7 7 5 4 4 5 7 8 10 11 11 12 13 14 15 14 14 14 14 15 15 16 16 16 16 15 15 15 16 15 16 16 15 15 17 19 21 23 25
15 15 14 13 13 13 14 13 12 12 11 11 11 11 10 9 8 8 8 8 8 7 6 6 7 6 7 7 7 7 7 7 7 6 7 7 6 6 8 6 4 2 1 3 3 2 5 6 5 2 2 3 5 6 8 10 11 12 13 14 15 14 13 14 14 15 15 15 16 16 16 15 14 14 15 15 15 15 14 14 16 18 20 22 24
16 15 14 14 13 14 15 14 13 12 12 12 12 12 11 10 9 9 9 9 9 9 8 8 8 8 8 8 8 8 7 8 7 6 6 7 7 6 6 6 5 2 2 1 3 3 3 4 4 5 5 5 6 7 8 8 9 10 12 13 14 13 13 13 15 16 15 16 16 16 16 15 14 13 14 15 15 15 15 14 15 17 19 21 23
18 16 16 16 15 15 15 15 14 13 13 13 12 12 12 12 12 12 11 11 11 11 10 10 9 8 9 9 10 9 7 7 7 6 6 7 7 7 6 6 6 4 3 2 2 3 4 6 8 9 8 8 8 8 9 9 8 10 11 12 12 12 12 13 15 17 17 17 17 16 16 15 14 13 13 14 15 15 15 14 15 16 18 19 21
18 18 18 17 17 17 17 16 16 15 15 14 13 13 12 13 13 13 12 12 12 12 11 11 10 9 9 10 10 9 8 7 7 7 7 8 8 7 7 7 5 5 5 4 4 7 9 10 11 11 10 9 9 9 10 10 9 10 10 11 12 13 13 14 15 16 17 17 17 16 16 15 15 14 14 14 15 15 15 14 14 15 16 17 19
19 19 20 20 19 18 18 18 18 17 17 16 15 14 13 14 14 13 12 12 12 13 12 12 11 11 10 10 11 10 8 8 8 8 8 9 10 9 8 8 7 7 8 8 8 10 13 12 12 12 11 11 11 11 11 11 11 12 13 13 14 15 15 15 16 15 15 16 16 16 15 15 15 15 14 14 14 15 15 15 15 15 15 16 17
20 20 20 21 21 20 20 19 19 19 18 17 16 15 15 14 14 14 13 12 13 13 13 13 12 12 11 12 12 11 9 9 9 8 9 10 10 10 10 10 10 9 9 10 9 10 14 16 15 15 14 13 12 12 12 13 15 15 15 14 13 14 14 14 15 14 14 15 16 15 15 15 15 15 15 15 15 15 16 16 16 16 15 15 16
22 22 21 21 22 22 21 20 19 20 20 19 17 16 16 15 15 15 14 14 14 14 14 14 13 12 12 12 12 12 11 11 11 10 10 10 10 10 9 9 10 10 10 11 10 10 13 16 16 16 16 15 14 14 14 15 15 15 15 15 13 13 12 13 14 15 15 16 17 16 16 16 15 15 16 17 17 16 17 17 17 17 16 15 15
23 24 23 23 22 23 22 21 21 21 21 21 19 18 18 17 17 16 15 15 15 15 16 16 15 14 14 14 13 12 13 14 14 13 12 11 11 10 10 9 10 11 11 12 12 12 12 14 16 17 17 17 17 16 15 15 16 15 15 15 15 14 14 13 15 16 17 17 18 18 17 15 15 15 17 18 18 18 18 18 19 19 18 17 16
24 25 25 24 24 24 25 24 23 23 23 22 21 21 20 19 19 18 17 17 17 17 17 17 17 17 16 16 15 13 14 15 15 15 15 14 13 12 12 11 11 12 12 13 14 14 14 15 17 18 17 17 18 18 17 16 17 18 18 18 17 17 16 15 16 19 20 19 17 16 16 15 14 15 17 18 19 19 20 20 20 20 19 18 17
26 26 26 26 26 26 26 26 26 25 25 24 24 23 22 22 22 21 20 20 19 18 18 18 17 18 18 18 18 16 16 17 17 16 15 15 14 13 13 13 13 14 14 15 15 16 16 17 18 19 20 19 19 21 20 18 18 20 21 22 22 20 18 17 20 22 22 21 18 16 15 14 15 15 16 18 19 20 20 20 20 20 20 20 18
27 28 28 28 28 28 28 27 27 27 26 26 25 24 23 23 23 23 22 22 22 21 21 20 19 18 18 19 19 18 18 18 18 17 16 15 15 15 16 16 16 16 17 18 18 18 19 19 19 20 21 20 20 22 22 20 20 20 21 21 23 23 21 21 23 24 22 20 19 17 15 14 14 15 16 17 19 20 20 20 20 20 20 20 19
29 29 29 29 29 28 28 28 28 28 27 27 27 26 24 23 23 24 24 24 24 24 23 23 21 21 20 20 20 20 20 19 19 18 17 16 17 17 18 18 18 19 19 20 20 20 20 20 21 22 22 21 22 23 23 22 21 22 20 17 19 24 24 23 24 24 22 20 17 15 14 13 14 14 15 17 18 19 19 20 19 19 19 19 19
29 29 28 29 30 30 30 29 29 29 29 29 28 28 27 25 24 24 25 25 25 26 26 25 24 24 23 22 22 22 21 21 20 20 19 19 19 20 19 19 20 21 22 23 23 23 22 21 22 23 22 22 24 25 24 23 23 23 22 19 20 23 25 24 24 23 20 18 17 16 14 13 13 14 15 17 19 18 19 19 18 18 18 17 17
29 28 28 29 30 31 32 31 30 30 30 30 30 29 29 28 27 27 27 27 27 27 28 28 28 27 26 25 25 24 23 22 22 22 22 21 21 21 21 21 22 23 24 25 24 24 23 21 22 23 21 22 26 27 25 26 26 25 24 22 22 23 23 22 23 23 20 17 17 18 17 16 16 17 17 20 21 20 19 19 18 17 17 16 16
23 23 23 25 27 29 31 32 31 31 31 32 31 31 30 30 29 29 29 29 29 29 30 30 30 30 29 28 27 26 25 25 24 24 24 23 23 22 22 22 23 24 26 26 26 26 24 22 23 23 21 23 28 29 28 29 29 27 26 24 22 22 20 17 18 20 21 18 17 20 22 21 20 20 21 23 24 23 21 19 17 17 17 17 16
20 19 18 19 21 24 26 29 30 30 31 32 31 31 31 31 31 31 31 32 31 31 32 31 32 31 31 30 30 29 28 28 27 27 27 27 26 25 25 25 24 25 26 27 28 27 25 24 24 24 24 25 28 30 30 30 29 28 26 24 22 21 20 18 18 20 22 20 18 20 24 25 22 22 24 27 26 25 22 19 17 16 17 17 16
20 18 19 17 17 18 20 23 26 28 30 30 31 31 30 31 31 32 33 33 33 33 33 33 33 33 32 32 31 30 30 29 29 29 29 29 29 29 29 28 28 28 27 27 28 27 27 26 26 27 28 27 28 30 31 30 28 27 26 26 25 23 21 21 22 24 25 22 20 20 23 26 24 22 26 30 29 26 23 20 18 17 17 17 17
15 15 16 17 17 16 17 19 21 23 25 26 27 27 28 29 30 31 33 33 34 34 35 34 34 34 34 33 32 32 31 30 29 29 29 30 30 30 31 31 31 31 30 29 30 30 30 30 29 30 30 30 30 31 31 30 29 29 29 29 28 26 25 25 26 27 27 25 22 19 20 26 26 22 26 31 30 27 24 21 19 18 17 17 17
11 12 12 13 14 14 15 15 17 18 19 19 19 21 22 24 25 28 30 32 33 34 35 35 35 35 35 34 34 34 33 32 31 30 30 30 30 30 31 31 32 32 32 32 32 32 32 32 31 32 31 31 31 32 32 31 31 31 32 30 28 27 27 26 26 27 28 27 23 17 19 27 27 24 27 31 29 26 24 20 19 18 17 17 17
8 10 10 8 8 9 10 11 12 14 15 15 16 17 18 19 19 21 25 28 31 33 34 35 35 35 35 35 35 35 35 35 33 32 32 31 30 30 31 32 33 34 34 34 33 32 32 32 32 32 31 31 31 31 32 32 32 33 32 29 27 27 26 23 24 27 29 28 25 20 21 26 28 26 28 29 27 25 24 20 17 16 16 16 15
6 6 7 5 4 5 6 6 8 9 10 11 14 16 17 17 17 18 20 21 24 27 30 32 33 34 34 34 34 34 35 36 36 35 35 33 31 31 31 32 33 34 35 36 34 33 33 33 32 32 31 31 30 30 31 30 31 32 31 27 27 27 24 19 19 24 27 28 28 23 21 24 27 27 27 27 27 25 22 18 16 15 15 15 13
4 4 5 5 5 5 6 6 7 8 8 8 9 10 11 11 12 15 17 18 20 21 23 25 28 30 31 33 33 33 34 36 36 36 36 34 33 33 33 33 33 33 35 36 35 35 35 33 32 31 30 30 29 29 29 28 28 29 30 30 30 28 23 19 20 23 25 29 31 25 20 25 28 27 25 23 23 25 23 19 17 16 14 14 13
6 8 9 8 8 8 7 7 7 7 7 7 7 8 7 7 8 10 12 15 17 19 20 21 22 23 25 27 28 28 30 31 32 32 32 32 33 35 35 32 31 33 36 36 34 34 34 33 33 32 30 29 28 28 29 29 27 27 29 31 30 28 26 25 25 20 15 21 28 23 19 24 27 25 22 16 12 17 21 20 17 17 16 15 15
Wind_Direction
148 150 153 151 148 148 145 143 140 136 137 141 147 150 152 150 145 148 151 179 228 259 267 262 250 241 237 243 257 270 278 292 279 243 239 238 236 236 229 236 250 255 256 257 262 270 289 302 306 304 300 297 294 291 289 293 303 309 311 316 315 313 312 310 310 310 310 308 305 303 305 307 308 307 307 305 301 297 293 293 294 291 288 287 286
149 150 151 148 148 149 148 148 145 141 141 143 148 150 151 145 138 137 130 170 315 311 294 276 260 249 241 244 256 267 275 286 286 257 248 248 247 250 248 252 263 273 273 269 263 267 283 293 303 304 298 297 295 293 294 300 310 314 311 309 308 305 307 306 305 305 305 304 303 302 303 304 305 305 304 302 300 298 294 292 291 289 288 286 284
150 150 150 150 153 157 159 159 151 143 139 139 141 139 134 126 121 104 35 343 347 324 306 289 261 246 241 242 251 262 268 275 285 275 261 260 262 267 271 273 275 278 276 277 282 288 295 296 299 298 294 296 298 295 299 309 313 310 307 303 302 302 302 301 301 304 306 305 306 304 304 303 304 304 303 301 300 298 296 293 291 291 290 289 287
156 160 165 167 171 173 171 165 155 148 142 138 133 126 120 116 115 42 331 326 329 306 296 289 263 242 241 245 250 259 261 263 278 289 280 271 279 290 296 294 288 287 284 288 298 301 304 304 302 300 299 300 301 298 297 300 300 298 298 298 300 300 300 301 302 306 307 306 305 304 304 304 304 304 304 304 301 298 297 296 296 296 294 293 290
176 184 190 190 189 185 177 169 163 158 150 140 130 123 120 114 139 288 302 305 306 297 285 276 264 249 245 251 254 258 256 256 269 292 300 299 310 326 336 326 311 305 306 309 311 308 308 308 308 308 307 307 305 303 299 298 295 292 292 293 296 296 297 299 300 302 302 303 304 303 304 303 304 303 303 303 301 300 299 299 300 299 298 297 294
182 187 191 192 190 184 176 172 170 164 152 143 138 136 137 141 198 264 284 291 298 297 279 266 264 259 255 257 256 254 255 259 267 278 297 318 336 342 351 352 346 344 340 335 327 322 318 315 314 313 312 312 311 310 308 306 302 299 297 297 298 297 298 299 301 303 304 306 308 308 309 309 310 308 306 305 304 303 301 301 302 302 302 300 298
172 177 185 188 184 175 168 168 168 161 152 146 145 146 146 158 218 251 270 282 294 300 279 264 262 258 258 262 259 256 260 265 271 274 285 302 325 341 338 340 348 352 351 348 344 339 333 328 324 321 321 319 317 315 313 311 309 307 306 305 306 306 306 307 309 311 311 313 315 315 316 316 317 316 314 310 306 304 303 304 304 303 302 299 296
170 174 182 185 179 171 166 165 163 157 151 149 151 150 151 184 234 250 268 282 291 290 274 269 263 254 253 259 261 262 266 270 274 277 280 287 301 321 326 326 328 333 338 343 345 346 342 338 336 335 336 334 332 328 323 322 319 318 316 314 314 314 315 316 317 318 318 319 320 320 320 320 319 318 316 312 307 306 306 306 305 303 301 299 296
174 169 173 175 175 173 171 167 161 159 154 147 153 154 162 207 235 254 274 288 292 289 287 289 274 257 251 256 262 264 270 276 279 281 280 283 290 303 320 323 319 317 317 322 327 334 335 333 333 336 341 345 347 345 343 340 336 331 328 325 323 322 322 321 322 322 322 323 322 322 321 319 318 315 314 312 310 309 310 310 308 306 303 300 298
179 168 165 165 170 173 173 170 167 170 160 150 156 155 170 212 243 262 280 290 295 303 310 311 286 259 248 250 256 259 277 294 290 282 279 284 290 298 310 313 312 311 306 308 311 315 321 320 320 324 333 340 341 344 344 343 341 338 335 332 330 327 326 324 324 324 323 323 322 321 319 317 316 315 316 318 319 318 318 317 313 313 311 308 306
185 173 165 162 167 170 172 176 181 185 175 172 177 171 179 209 260 277 287 285 294 319 324 317 292 267 254 250 247 253 283 302 297 285 280 284 291 295 300 303 305 305 302 303 305 307 311 312 312 315 322 327 330 334 337 338 338 336 335 334 332 330 328 327 325 324 323 323 322 321 319 318 318 321 325 328 328 327 326 325 322 323 322 319 316
197 194 186 179 178 179 183 186 187 191 198 208 208 198 192 208 269 288 291 281 291 323 325 314 296 272 261 260 252 256 278 289 289 287 285 287 290 291 293 297 297 296 298 299 300 302 303 305 306 309 315 321 325 327 330 334 334 333 332 330 328 328 327 327 327 325 324 323 322 320 320 323 327 331 335 335 332 329 328 329 328 328 328 326 324
203 204 206 204 202 200 202 205 201 205 216 227 232 228 220 218 240 298 311 303 300 321 325 320 315 283 261 265 269 270 276 277 276 279 284 286 288 287 287 293 293 293 297 299 299 299 299 300 301 303 310 318 326 328 331 335 336 335 331 329 326 324 324 326 326 326 324 322 321 323 328 335 340 340 338 336 333 330 329 330 331 332 333 331 328
206 207 211 213 214 216 218 219 216 219 226 235 240 239 235 226 242 300 328 321 306 308 310 317 349 349 312 300 299 294 283 270 267 271 276 280 282 283 286 289 290 294 299 299 298 298 297 299 300 302 307 317 329 336 338 338 338 337 335 333 330 326 325 325 325 324 323 325 329 336 345 347 343 340 338 338 336 333 332 332 334 336 336 335 332
210 215 218 219 222 226 223 221 220 222 226 234 239 232 227 224 242 305 331 326 312 305 294 297 347 352 356 337 330 338 310 282 280 275 269 271 274 276 281 286 288 293 296 297 297 297 300 301 302 305 309 317 330 338 341 342 342 342 340 339 336 333 331 330 329 327 329 338 346 351 351 347 343 341 341 341 339 337 335 336 337 338 338 337 338
218 223 225 226 230 233 229 225 223 222 222 227 230 222 216 218 238 300 325 326 324 320 288 273 315 320 340 331 338 16 327 305 318 303 271 261 265 269 274 279 284 288 290 293 296 299 301 302 305 309 313 316 323 330 337 343 345 345 346 347 347 349 349 347 343 341 345 352 356 355 350 347 345 343 343 343 344 343 342 342 342 340 340 341 345
220 226 228 230 234 235 234 230 223 220 224 226 219 215 214 218 237 283 318 321 324 327 304 278 296 294 280 303 351 357 271 308 334 324 295 270 265 268 270 272 277 282 286 290 293 296 297 300 305 311 317 317 321 330 337 344 345 346 353 360 5 7 3 358 354 351 354 356 355 353 350 348 346 345 345 347 349 349 347 344 342 341 343 346 352
217 224 227 228 231 234 235 232 225 221 229 229 213 210 214 219 236 262 310 320 318 325 320 294 288 286 275 290 312 289 272 311 337 323 324 313 287 278 271 269 271 274 280 285 288 289 290 293 299 306 313 314 319 330 340 346 345 345 354 3 12 15 9 3 0 356 354 355 353 351 349 348 347 346 349 352 353 350 346 343 341 343 346 350 355
214 221 225 225 228 233 233 230 225 222 230 229 213 209 213 221 234 247 304 334 330 339 338 315 315 317 291 303 313 298 288 300 292 311 326 337 352 340 304 279 271 270 276 279 282 285 286 289 294 299 304 308 316 328 340 345 345 348 354 358 7 12 10 6 1 357 355 354 351 350 350 349 349 350 353 355 353 348 345 343 343 346 349 352 354
212 216 219 221 226 228 227 227 223 221 226 226 218 215 217 223 231 242 289 340 345 357 4 359 3 353 334 334 341 349 340 311 330 348 327 313 350 358 350 315 280 270 272 274 275 279 284 290 294 295 295 301 309 321 333 339 340 349 357 358 4 10 11 9 2 359 357 355 354 352 353 353 354 355 356 355 351 347 346 345 346 349 352 352 353
209 212 213 216 221 223 222 223 222 221 226 226 221 220 220 221 226 239 265 301 316 338 356 13 15 6 2 8 13 15 19 35 14 0 11 47 331 322 346 337 296 276 274 275 277 276 281 288 292 293 291 293 301 312 324 328 328 342 357 358 2 10 13 12 8 7 5 1 359 357 357 358 358 357 357 355 351 349 348 348 349 350 352 351 352
207 213 217 218 218 219 217 218 220 220 224 225 220 220 222 222 226 238 256 276 284 300 319 330 359 7 11 18 22 24 25 22 3 359 360 5 319 293 333 340 296 289 285 282 284 280 279 282 287 292 291 292 294 301 313 319 321 335 352 355 357 4 11 14 12 12 14 13 7 2 1 0 359 358 357 354 352 352 350 349 349 349 351 350 352
212 217 221 221 218 215 213 214 215 216 219 221 221 223 224 227 233 240 254 271 270 269 283 296 318 352 13 20 23 25 22 7 358 354 334 301 310 305 331 340 300 294 302 303 296 285 278 278 283 289 293 295 292 293 303 311 319 334 346 348 349 354 3 10 11 10 12 15 14 9 5 2 0 358 356 354 353 354 351 350 349 348 349 350 352
220 223 222 220 218 213 212 213 212 214 216 219 223 227 230 235 239 243 253 267 266 261 269 280 290 319 2 16 19 19 13 5 1 356 339 305 285 297 335 351 330 320 334 332 315 293 280 278 282 286 288 290 288 293 300 308 323 338 339 339 340 344 351 359 4 4 4 7 10 11 9 5 2 358 356 354 354 355 354 351 350 347 348 349 353
221 223 222 220 219 213 212 215 213 214 217 218 223 229 234 238 241 247 258 268 266 263 269 274 281 302 338 359 9 12 5 360 0 2 6 6 329 313 334 347 337 344 352 348 337 314 293 283 281 281 283 284 287 299 306 315 333 340 335 333 333 335 342 350 354 355 355 356 359 4 7 6 4 360 357 355 354 356 356 353 350 347 347 348 353
218 220 221 221 221 217 216 218 217 218 221 221 222 227 234 236 240 250 261 267 265 269 277 275 275 288 308 334 350 1 358 354 354 359 11 24 18 358 346 336 328 346 8 9 360 339 314 292 281 279 279 280 294 309 314 321 332 333 327 328 327 327 334 341 345 345 344 345 347 353 359 2 4 2 359 357 356 356 356 354 351 349 348 348 353
218 220 221 222 222 218 219 221 220 223 224 221 220 223 228 231 237 247 253 257 264 272 280 277 275 279 285 310 331 344 345 345 349 349 355 9 21 20 13 11 353 342 358 15 25 19 353 320 297 288 276 276 301 316 322 323 323 319 316 319 321 321 326 332 337 337 336 335 337 341 348 354 359 1 359 359 359 358 356 354 352 351 350 350 353
222 223 223 224 222 217 217 219 218 220 221 218 219 221 226 232 238 246 246 249 261 272 275 273 274 276 278 293 310 324 330 333 340 343 346 352 6 13 8 20 32 353 347 358 11 25 15 359 340 309 277 285 305 317 323 322 314 307 307 311 314 316 320 324 329 332 332 330 330 332 336 343 350 355 356 356 359 1 358 355 354 354 353 352 353
228 228 225 223 223 219 216 215 213 215 217 218 219 220 227 237 243 247 246 246 257 269 274 274 276 277 275 283 295 308 319 325 327 330 341 347 349 348 344 351 13 21 15 342 319 338 12 13 22 24 332 318 321 322 325 324 315 305 303 305 309 313 316 317 321 326 329 327 326 326 328 333 339 345 349 349 353 360 359 356 355 356 356 354 354
232 232 228 226 228 225 219 217 216 216 218 219 222 223 228 239 246 245 243 246 257 266 273 275 275 277 277 278 284 295 310 322 324 319 327 341 341 336 332 330 332 318 191 222 284 293 336 347 351 352 348 344 335 328 328 327 320 311 306 304 305 309 310 311 315 320 324 324 323 323 323 325 329 332 338 341 344 352 356 355 354 354 356 357 355
234 234 233 232 235 232 227 226 227 226 225 223 225 228 232 239 244 244 242 246 255 259 263 265 267 273 278 277 279 284 298 313 321 318 316 328 334 333 327 320 319 306 262 217 226 278 301 305 310 318 328 335 336 332 324 317 313 311 309 305 305 309 308 308 311 313 316 318 318 321 321 319 320 322 326 331 335 341 347 349 350 351 353 355 356
239 238 238 238 239 237 235 235 236 236 234 231 228 230 237 241 242 243 242 244 252 255 255 253 254 264 273 275 275 274 282 294 302 306 305 308 313 317 317 314 308 291 284 268 245 274 293 299 302 310 319 325 328 332 326 318 314 313 313 310 309 311 308 306 306 307 309 312 314 317 317 315 315 316 317 320 325 331 336 340 341 344 348 351 354
242 243 242 242 241 241 242 242 244 242 240 238 235 234 238 241 241 241 240 240 245 249 249 248 249 258 269 273 269 263 269 283 285 290 296 299 298 295 295 299 298 292 295 292 279 287 300 303 304 311 318 319 318 323 324 320 320 321 319 313 309 306 304 303 303 303 307 312 313 312 311 310 310 311 311 310 314 321 327 330 331 334 340 344 348
241 243 245 244 242 243 246 246 245 243 241 241 239 237 238 239 239 239 239 239 240 242 245 247 248 255 264 269 265 255 259 273 275 278 288 295 296 291 282 281 287 293 301 303 294 290 298 303 306 309 314 317 316 317 319 317 321 325 321 314 308 304 304 304 303 304 310 314 314 310 308 307 306 307 307 306 306 312 318 321 322 324 330 336 341
243 243 245 245 242 243 245 244 242 240 239 240 238 236 239 240 238 237 237 239 242 243 244 244 245 251 258 263 262 255 255 263 267 269 276 285 293 292 283 277 279 283 292 300 299 292 295 302 306 306 308 310 310 312 314 313 317 322 319 316 314 312 310 308 305 307 311 314 313 312 310 308 305 305 305 304 303 304 310 314 315 316 320 327 332
246 244 246 246 243 243 244 243 242 240 240 241 240 239 240 242 242 241 240 242 246 248 248 248 247 251 257 259 261 261 261 263 265 266 267 273 283 288 285 280 278 279 284 290 295 296 294 296 302 306 306 304 304 308 311 311 313 315 314 316 317 315 314 313 311 314 318 316 312 310 311 310 308 306 305 303 302 302 305 309 310 311 312 318 324
247 247 247 247 245 245 247 247 246 246 245 245 245 245 245 245 246 248 248 248 249 250 251 253 254 256 258 259 262 266 269 271 271 270 268 268 274 279 280 281 280 281 284 285 289 293 290 288 294 300 302 301 301 303 306 309 311 310 310 313 314 313 313 314 314 318 322 321 315 308 305 306 307 306 305 302 301 303 305 306 307 307 308 311 317
244 246 247 247 247 246 249 251 250 250 251 250 249 251 252 250 250 251 253 254 254 253 253 255 257 259 261 261 262 264 268 273 276 276 273 270 271 274 276 277 279 281 283 283 285 287 286 286 289 292 294 296 296 298 302 305 307 307 308 310 313 314 314 314 315 318 321 321 320 314 304 301 301 301 302 302 301 303 305 306 306 305 305 307 310
244 246 246 247 247 247 248 250 250 251 252 251 251 252 254 254 253 252 254 256 257 257 256 256 257 259 262 263 263 263 264 268 272 274 274 273 273 276 277 278 279 280 282 283 283 284 284 284 284 285 289 292 294 295 298 301 301 301 303 306 310 314 315 314 315 319 320 317 316 315 308 301 298 299 301 301 301 303 305 306 305 304 304 305 306
247 247 246 246 247 248 249 249 250 251 251 250 249 248 249 251 252 252 254 257 259 259 260 260 260 260 262 264 264 264 264 266 267 268 269 270 273 277 278 280 282 282 282 282 282 281 280 280 280 282 285 287 290 292 294 296 296 297 301 301 301 305 309 311 314 318 318 314 312 311 307 303 300 300 302 303 304 306 307 307 307 307 306 305 304
249 249 247 246 246 247 249 250 250 250 250 250 249 249 249 249 249 251 254 256 258 259 260 262 262 262 263 265 266 266 267 268 269 269 268 269 271 275 277 280 282 283 283 282 281 279 277 276 277 279 281 282 285 288 290 292 294 297 300 296 292 297 302 304 309 314 315 310 307 305 304 303 301 300 302 307 312 313 311 311 313 314 313 308 303
246 248 246 246 246 247 248 249 250 249 249 251 253 253 253 253 253 253 254 256 258 259 260 261 262 263 263 265 267 268 269 270 271 272 271 271 271 272 275 277 280 282 282 281 281 280 277 274 276 279 279 280 284 286 287 291 294 295 295 292 290 295 299 299 305 313 314 308 303 301 301 301 300 300 302 308 315 318 318 318 321 322 320 314 306
236 239 241 241 242 245 248 249 250 250 250 252 254 255 256 257 258 257 257 258 259 260 261 261 263 265 265 266 269 270 270 271 271 272 274 273 272 271 271 273 275 279 280 279 279 280 277 273 276 278 275 276 283 287 286 289 291 291 292 292 290 291 294 292 297 306 311 308 299 296 299 299 297 297 299 303 310 315 318 318 321 322 321 317 312
238 232 233 234 237 241 245 248 250 251 252 254 255 256 257 258 259 259 259 260 260 261 263 264 265 267 268 270 271 272 273 273 273 274 274 274 273 271 270 270 271 274 276 276 277 277 276 274 274 275 274 275 280 285 286 286 288 289 290 291 289 287 287 284 283 293 303 304 295 290 293 296 293 291 294 299 303 308 312 312 313 315 315 317 316
248 238 231 231 235 238 241 245 249 250 253 256 257 258 259 260 260 259 258 258 259 261 263 265 267 269 270 272 273 274 277 277 277 276 276 276 276 274 273 272 271 271 272 273 274 275 275 274 270 272 277 277 276 282 288 287 285 286 286 286 287 286 284 284 286 292 299 298 290 283 285 288 288 285 289 295 300 303 305 306 306 306 306 308 312
251 250 240 233 234 237 239 243 247 250 252 255 257 258 259 260 261 260 260 259 259 260 262 264 266 268 270 271 272 275 278 279 279 279 279 280 280 279 277 276 275 275 273 272 273 274 277 276 271 272 280 281 278 284 292 289 282 282 282 282 285 286 285 287 290 294 296 293 287 279 277 283 285 282 286 293 299 300 301 300 301 300 299 300 304
257 263 257 243 238 241 245 246 248 250 251 253 255 256 257 259 260 261 261 261 261 261 261 263 264 266 269 270 271 274 277 279 281 281 281 281 281 280 280 279 279 279 278 277 278 279 281 282 280 280 284 286 285 288 292 291 286 286 285 282 282 285 285 286 288 290 292 292 286 272 267 279 285 281 284 293 297 297 299 299 297 295 293 295 298
282 278 274 262 251 253 258 261 264 263 259 256 254 254 255 257 260 262 262 262 262 262 262 263 262 263 266 268 269 272 275 278 281 283 283 282 279 278 278 279 280 280 280 282 284 283 284 284 284 284 284 286 287 288 290 289 287 288 286 281 280 281 279 280 283 285 289 293 290 275 263 274 283 280 283 293 294 293 296 295 292 290 289 290 292
301 299 298 304 307 297 295 298 299 296 287 276 269 265 265 266 267 268 270 271 270 268 267 266 265 264 264 265 268 270 273 277 280 283 284 283 280 278 277 277 278 278 280 284 285 285 285 284 283 283 284 285 286 287 287 287 286 285 280 273 276 278 273 272 276 279 284 288 291 285 268 270 280 280 281 289 291 288 292 292 288 286 285 283 282
335 354 354 1 7 356 347 345 342 336 327 315 303 292 284 281 280 278 278 280 280 278 277 276 273 270 269 269 269 269 271 274 278 280 282 282 281 280 278 277 276 276 279 283 284 285 286 284 283 283 284 286 287 288 288 287 286 284 275 271 276 276 268 264 267 273 279 282 286 285 269 268 279 280 276 282 285 284 287 290 289 285 281 278 276
27 33 31 32 33 28 18 10 6 360 351 338 326 319 310 299 296 292 286 285 285 285 285 286 285 283 281 280 278 276 276 278 280 282 283 282 280 279 278 276 273 274 278 282 284 285 286 286 285 286 286 287 289 289 290 289 287 284 279 277 279 273 264 263 265 267 273 279 283 282 267 269 280 279 271 269 274 282 285 285 285 285 281 277 275